Bodensee (Kressbronn): 6,7°C  -  Teich der Wetterzentrale Bad Schussenried: 5,6°C |  Schneehöhe Kreuzthal-Steinberg (930 m ü. NN): 8 cm   
01.04.2020Höhe
ü. NN
ZeitTemperatur (°C)Nieder-
schlag
Luft-
feuchte
Luft-
druck
Wind
StationaktuellMinimumMaximumaktuellMaximum
Aldingen654 m06:11-4,2-4,2 (07:35)-0,3 (16:02)0,0 l/m²77%1023,43,7 km/h (1 Bft) W-NW29,6 km/h (5 Bft) W (14:48)
Allmendingen541 m06:10-6,3-6,3 (07:35)-2,1 (15:10)0,0 l/m²88%1023,20,0 km/h (0 Bft) NO35,4 km/h (5 Bft) O (15:35)
Altshausen574 m06:10-3,7-3,9 (05:14)-1,1 (00:16)0,0 l/m²67%1021,011,3 km/h (2 Bft) N11,3 km/h (2 Bft) N (06:10)
Amstetten-Reutti663 m06:10-4,6-4,6 (06:10)-1,5 (16:55)0,0 l/m²86%1022,93,2 km/h (1 Bft) N-NO48,3 km/h (6 Bft) W (15:55)
Amtzell-Grenis677 m06:10-3,8-4,1 (06:05)-1,4 (00:00)0,0 l/m²63%1022,96,4 km/h (2 Bft) W-SW6,4 km/h (2 Bft) W-SW (00:00)
Aulendorf570 m06:10-2,9-2,9 (06:10)-0,5 (00:00)0,0 l/m²71%1021,86,4 km/h (2 Bft) NO14,5 km/h (3 Bft) O-NO (05:13)
Bad Krozingen233 m06:05-2,0-2,0 (06:05)3,7 (16:05)0,0 l/m²77%1023,33,5 km/h (1 Bft) S-SW38,1 km/h (5 Bft) N (17:05)
Bad Saulgau595 m06:10-4,9-4,9 (07:00)-1,9 (15:00)0,0 l/m²87%1021,60,0 km/h (0 Bft) S-SO25,7 km/h (4 Bft) S (11:35)
Bad Saulgau, Mannsgrab588 m06:13-4,8-6,1 (05:34)-1,7 (00:17)0,0 l/m²86%1024,10,0 km/h (0 Bft) N0,0 km/h (0 Bft) N (00:00)
Bad Saulgau-Lampertsweiler627 m06:10-4,6-4,7 (06:10)0,2 (00:00)0,0 l/m²81%1024,78,0 km/h (2 Bft) N-NW22,5 km/h (4 Bft) N-NW (01:15)
Bad Schussenried572 m06:10-4,0-4,0 (06:10)-1,1 (00:00)0,0 l/m²87%1021,10,0 km/h (0 Bft) NO9,7 km/h (2 Bft) NO (03:15)
Bergatreute615 m01:45-0,7-0,7 (00:45)0,0 (00:00)0,0 l/m²77%1023,512,9 km/h (3 Bft) NO16,1 km/h (3 Bft) O-NO (01:40)
Biberach (Riss), Boehringer533 m06:20-4,1-4,4 (06:20)-1,1 (00:30)0,0 l/m²88%1021,92,9 km/h (1 Bft) NW11,9 km/h (3 Bft) N (03:00)
Biberach (Riss), Realschule553 m06:15-3,9-3,9 (06:05)-0,3 (00:00)0,0 l/m²87%1023,711,3 km/h (2 Bft) N-NO12,9 km/h (3 Bft) N (06:05)
Burgrieden523 m06:10-3,9-3,9 (06:10)-0,4 (00:00)0,0 l/m²81%1022,90,0 km/h (0 Bft) NO4,8 km/h (1 Bft) O-NO (02:50)
Burgrieden-Hochstetten510 m06:10-4,5-4,5 (07:00)-0,9 (15:40)0,0 l/m²89%1023,33,2 km/h (1 Bft) N-NO25,7 km/h (4 Bft) NO (12:55)
Ebersbach579 m06:10-3,6-3,8 (05:55)-0,1 (00:00)0,0 l/m²86%1023,28,0 km/h (2 Bft) N-NW16,1 km/h (3 Bft) NO (01:25)
Ebersbach-Boos605 m06:10-4,2-4,2 (05:55)-0,1 (00:00)0,0 l/m²88%1023,012,9 km/h (3 Bft) NO22,5 km/h (4 Bft) O (01:00)
Ebersbach-Menzenweiler661 m06:10-3,8-3,8 (06:10)-0,6 (00:00)0,0 l/m²87%1022,916,1 km/h (3 Bft) NO24,1 km/h (4 Bft) O-NO (01:05)
Ehingen535 m01:10-2,5-2,5 (01:10)-1,3 (00:05)0,0 l/m²70%1025,40,0 km/h (0 Bft) N-NO5,0 km/h (1 Bft) N-NO (00:15)
Erlenmoos645 m06:10-3,2-3,2 (06:05)-0,9 (00:00)0,0 l/m²86%1022,68,0 km/h (2 Bft) NO12,9 km/h (3 Bft) O-NO (01:35)
Ertingen569 m06:10-3,4-3,4 (06:00)-0,6 (00:00)0,0 l/m²84%1022,86,4 km/h (2 Bft) N16,1 km/h (3 Bft) N-NO (04:10)
Friedrichshafen405 m06:10-1,6-1,6 (07:00)0,9 (13:30)0,0 l/m²77%1022,68,0 km/h (2 Bft) NO27,4 km/h (4 Bft) NO (15:10)
Günzburg443 m06:10-4,8-4,8 (06:05)-1,1 (00:00)0,0 l/m²87%1020,80,0 km/h (0 Bft) NO0,0 km/h (0 Bft) NO (00:00)
Hochdorf-Appendorf537 m06:10-5,4-5,8 (06:05)-1,7 (00:15)0,0 l/m²67%1022,54,8 km/h (1 Bft) N-NO14,5 km/h (3 Bft) N-NW (03:20)
Höchsten802 m06:10-3,7-3,7 (06:00)-1,4 (00:00)0,0 l/m²80%1020,517,7 km/h (3 Bft) N25,7 km/h (4 Bft) NO (02:45)
Horgenzell618 m06:10-1,9-1,9 (03:45)-0,6 (00:05)0,0 l/m²76%1020,14,8 km/h (1 Bft) N-NO19,3 km/h (3 Bft) N-NO (00:50)
Hoßkirch632 m06:10-6,4-6,4 (06:05)-1,0 (00:15)0,0 l/m²87%1021,64,8 km/h (1 Bft) O14,5 km/h (3 Bft) O-NO (00:20)
Isny, Am Dreifingerbach695 m06:10-4,2-4,4 (05:00)0,1 (01:00)0,0 l/m²82%1021,30,0 km/h (0 Bft) W14,5 km/h (3 Bft) O-NO (01:05)
Isny, Weidachweg706 m06:10-4,0-4,1 (06:10)0,3 (00:25)0,0 l/m²76%1023,71,6 km/h (1 Bft) W12,9 km/h (3 Bft) W (00:10)
Kappel-Grafenhausen163 m06:05-1,3-1,3 (07:00)3,3 (14:55)0,0 l/m²77%1021,20,0 km/h (0 Bft) N30,6 km/h (5 Bft) N-NO (16:55)
Kißlegg-Staibshof709 m06:10-3,2-3,2 (06:00)-0,9 (00:00)0,0 l/m²82%1022,48,0 km/h (2 Bft) NO14,5 km/h (3 Bft) O (01:50)
Kressbronn398 m06:14-2,0-2,0 (06:12)1,4 (00:00)0,0 l/m²74%1021,30,0 km/h (0 Bft) NO22,5 km/h (4 Bft) NO (00:54)
Kreuzthal-Steinberg-Alpe930 m06:10-4,5-4,8 (04:00)-2,5 (00:00)0,0 l/m²88%1022,01,8 km/h (1 Bft) N-NW22,0 km/h (4 Bft) W-NW (00:10)
Kreuzthal-Steinberggipfel1040 m06:10-3,5-4,0 (02:20)-3,1 (00:10)-74%1022,014,4 km/h (3 Bft) O37,1 km/h (5 Bft) O-SO (00:10)
Kristberg im Montafon (AT)1425 m06:10-6,4-6,6 (04:51)-5,3 (00:40)0,0 l/m²61%1026,30,0 km/h (0 Bft) N-NO10,1 km/h (2 Bft) NO (01:47)
Laupheim500 m06:10-3,7-3,7 (06:10)0,0 (00:00)0,0 l/m²82%1022,40,0 km/h (0 Bft) NO9,7 km/h (2 Bft) O-SO (00:20)
Leutkirch-Heggelbach670 m06:10-4,6-4,6 (05:40)-2,6 (00:30)0,0 l/m²87%1021,70,0 km/h (0 Bft) N-NO8,0 km/h (2 Bft) N-NO (03:30)
Lindau-Insel420 m06:10-1,2-1,2 (07:25)1,8 (14:55)0,0 l/m²73%1021,60,0 km/h (0 Bft) O-NO29,0 km/h (5 Bft) NO (17:05)
Lindau-Stadt412 m06:10-1,9-2,0 (07:25)1,2 (14:55)0,0 l/m²76%1021,81,6 km/h (1 Bft) NO33,8 km/h (5 Bft) N-NO (15:40)
Maierhöfen im Allgäu733 m06:10-3,7-3,7 (06:10)-1,2 (01:35)0,0 l/m²76%1021,93,2 km/h (1 Bft) N25,7 km/h (4 Bft) O-SO (02:05)
Maselheim543 m06:10-4,9-4,9 (07:25)-2,3 (13:20)0,0 l/m²86%1023,23,2 km/h (1 Bft) N-NW24,1 km/h (4 Bft) O-NO (15:20)
Maselheim-Sulmingen548 m06:10-4,9-4,9 (07:05)-2,2 (15:15)0,0 l/m²89%1024,44,8 km/h (1 Bft) NW20,9 km/h (4 Bft) N-NO (12:15)
Mietingen-Baltringen528 m06:10-4,7-4,7 (05:40)-1,3 (00:45)0,0 l/m²86%1024,70,0 km/h (0 Bft) O-NO4,8 km/h (1 Bft) N-NO (01:20)
Mindelheim-Apfeltrach620 m06:11-5,6-5,6 (06:08)-2,7 (00:00)0,0 l/m²88%1024,00,0 km/h (0 Bft) NO0,0 km/h (0 Bft) O-NO (00:00)
Mittelbiberach577 m06:11-4,3-4,4 (06:08)-1,0 (00:16)0,0 l/m²84%1024,04,8 km/h (1 Bft) NO12,8 km/h (3 Bft) NO (05:56)
Neresheim552 m06:01-6,8-6,8 (06:01)-2,0 (00:00)0,0 l/m²89%1021,70,0 km/h (0 Bft) O4,0 km/h (1 Bft) NO (01:00)
Neukirch570 m06:10-3,1-3,1 (07:05)-0,9 (14:35)0,0 l/m²80%1022,06,4 km/h (2 Bft) N-NO37,0 km/h (5 Bft) N-NO (11:55)
Ochsenhausen, Birkenstraße613 m06:10-5,3-5,3 (07:10)-2,2 (12:50)0,0 l/m²81%1023,21,6 km/h (1 Bft) NO3,2 km/h (1 Bft) S-SW (07:05)
Ochsenhausen, Unt. Wiesen575 m06:10-5,4-5,5 (05:35)-2,4 (00:00)0,0 l/m²88%1024,40,0 km/h (0 Bft) NO4,8 km/h (1 Bft) NO (00:00)
Opfenbach-Göritz561 m06:11-4,4-5,2 (05:22)-2,8 (00:00)0,0 l/m²76%1020,10,0 km/h (0 Bft) N-NO6,5 km/h (2 Bft) O-NO (00:18)
Ostrach619 m06:10-3,7-3,8 (04:15)-0,6 (00:00)0,0 l/m²88%1021,26,4 km/h (2 Bft) NW8,0 km/h (2 Bft) N-NW (04:40)
Ravensburg, Goethestraße428 m06:10-1,7-1,7 (06:10)1,3 (00:00)0,0 l/m²79%1021,911,3 km/h (2 Bft) O-NO14,5 km/h (3 Bft) O-NO (02:45)
Ravensburg-Wernsreute511 m06:10-2,9-2,9 (05:30)0,0 (15:50)0,0 l/m²81%1024,616,1 km/h (3 Bft) N35,4 km/h (5 Bft) N-NO (11:45)
Reichenbach an der Fils343 m06:10-2,0-2,0 (06:10)1,0 (00:00)0,0 l/m²77%1025,41,6 km/h (1 Bft) SO12,9 km/h (3 Bft) O-SO (05:10)
Riedlingen530 m06:10-3,2-3,2 (06:10)-1,0 (00:00)0,0 l/m²81%1023,10,0 km/h (0 Bft) O-NO0,0 km/h (0 Bft) N (00:00)
Rißtissen489 m06:10-3,0-3,0 (06:10)-0,2 (00:00)0,0 l/m²85%1020,70,0 km/h (0 Bft) O-NO8,0 km/h (2 Bft) O-NO (03:30)
Rottweil-Hausen681 m06:13-4,1-4,4 (05:57)-1,9 (00:00)0,0 l/m²83%1023,93,2 km/h (1 Bft) N-NW6,5 km/h (2 Bft) N (02:14)
Schemmerhofen520 m06:102,72,7 (00:00)2,7 (00:00)0,0 l/m²55%1021,90,0 km/h (0 Bft) NO0,0 km/h (0 Bft) NO (00:00)
Silbertal im Montafon (AT)884 m06:10-4,3-4,3 (06:02)-1,6 (00:01)0,0 l/m²85%1026,00,0 km/h (0 Bft) O-NO0,0 km/h (0 Bft) O-NO (00:00)
Tettnang466 m06:14-1,3-1,3 (06:11)1,0 (00:00)0,0 l/m²71%1021,87,9 km/h (2 Bft) N-NO16,2 km/h (3 Bft) O-SO (01:07)
Tuttlingen648 m06:06-4,1-4,3 (05:41)-2,1 (00:01)0,0 l/m²75%1023,50,0 km/h (0 Bft) SO5,2 km/h (1 Bft) W-SW (03:26)
Tuttlingen, Möhringer-Vorstadt711 m06:10-4,3-4,5 (07:10)-2,4 (16:05)0,0 l/m²82%1022,60,0 km/h (0 Bft) NO25,7 km/h (4 Bft) N-NW (12:35)
Ummendorf547 m06:10-4,4-4,5 (06:10)-0,7 (00:10)0,0 l/m²69%1023,80,0 km/h (0 Bft) O-NO16,1 km/h (3 Bft) O (01:05)
Ummendorf-Fischbach558 m06:10-5,2-5,2 (06:10)-1,9 (01:25)0,0 l/m²70%1023,60,0 km/h (0 Bft) O4,8 km/h (1 Bft) O (04:20)
Waldburg707 m06:10-3,1-3,1 (06:05)-0,8 (00:00)0,0 l/m²80%1021,68,0 km/h (2 Bft) N19,3 km/h (3 Bft) N (02:35)
Waltenhofen im Allgäu720 m06:10-7,2-7,2 (05:30)-2,2 (01:05)0,0 l/m²90%1022,60,0 km/h (0 Bft) N-NW17,7 km/h (3 Bft) N-NW (11:50)
Wangen, Südring548 m06:10-3,9-3,9 (05:54)-0,3 (00:00)0,0 l/m²83%1021,66,5 km/h (2 Bft) NO13,0 km/h (3 Bft) NO (01:25)
Warthausen-Birkenhard581 m06:14-4,2-4,3 (05:35)-1,2 (00:00)0,0 l/m²86%1023,413,7 km/h (3 Bft) N-NO13,7 km/h (3 Bft) NO (06:13)
Winterlingen785 m06:00-5,6-5,6 (06:00)-2,8 (01:00)0,0 l/m²84%1022,61,8 km/h (1 Bft) N3,6 km/h (1 Bft) NO (00:55)

Werbung
niederschlagsdatenbank | info | login - erfassung

Sollten Sie Interesse haben, an der Niederschlagsdatenbank teilzunehmen, finden Sie > hier < weitere Informationen.

Niederschlagsdaten der Station Seltmans - Amselweg 22

Friedrich Harder

Niederschlagsstation aufgenommen ins Stationsnetz der Wetterwarte Süd am 05.11.2010
Monat: .
Anmerkung:0,0 = nicht messbarer Niederschlag
 -  = kein Niederschlag

Stationsdaten

Höhe

789 m

Lage

Auf Google Maps ansehen

Beschreibung

Seltmans ist ein Ortsteil der Gemeinde Weitnau im Bayerischen Allgäu. Die Station liegt am Rand eines Wohngebietes am Fuß der ''Kugel'', eines 1048 m hohen Berges. Dadurch bedingt sind Winde aus Westen Fallwinde, die vom Berg runterkommen. Nach SW bis NO gibt es keine wesentlichen Beeinträchtigungen. Nach Osten liegt das freie Weitnauer Tal und von Südwesten kommt das Wetter ungehindert aus Richtung Vorarlberg. Nordöstlich befindet sich der Bergrücken des ''Sonneck'', auch 1048 m hoch. Dadurch ergibt sich aus der oft vorherrschenden Windrichtung Südwest eine Stauwirkung, sodass die Regenmengen und im Winter die Schneehöhen hoch ausfallen können. Seltmans gilt daher als ''Schneeloch''.
< März 2013Mai 2013 >

April 2013

TagNiederschlagBemerkung
01.2,8
Schmelzwasser
02.0,8
Schmelzwasser
03.0,2
Schmelzwasser
04.-
05.-
06.-
07.-
08.4,6
Regen
09.2,0
Stand: 5:10 Uhr
Regen
10.-
11.-
12.-
13.-
14.-
15.-
16.-
17.-
18.-
19.-
20.-
21.-
22.-
23.-
24.-
25.-
26.-
27.-
28.-
29.-
30.-
Gesamt:10,4 
Die Spalten "Tag" und "Niederschlag" lassen sich durch Klicken auf den Spaltenkopf sortieren.
Die Angaben sind in l/m².

< März 2013Mai 2013 >


Monats- und Jahresniederschlag


Wetterbeobachtungen Legende:

  • Regen
  • Nieselregen
  • Schneeregen
  • Schnee
  • Graupel
  • Eiskörner
  • Hagel
  • Bodennebel
  • Gewitter
  • Nebelnässe
  • Schneegriesel

Grafische Darstellung der Niederschläge der Station Seltmans April 2013

 
wetterstationen
wetterstationen
- derzeit 83 Stationen
niederschlagsdatenbank
wetterstationen
- kartographische Darstellung
niederschlagsdatenbank
niederschlagsstationen
- derzeit 112 Stationen
niederschlagsdatenbank
niederschlagsstationen
- kartographische Darstellung
 
  treffpunkt & service
--- Anzeigen --------------------------------
zugriffe:
insgesamt: 46.623.253
aktueller monat: 442
heute: 442
momentan online: 18
 
 
monatshöchstwert: 653.625
vorheriger monat: 364.213
gestern: 13.565
tageshöchstwert: 57.073
 
wetterwarte süd
 
konradstraße 3
info@wetterwarte-sued.com
roland roth
 
88427 bad schussenried